Regional Weather Roundup
Issued by NWS

Home | Current Version | Previous Version | Text Only | Print | Product List | Glossary Off
Versions: 1 2 3 4 5 6 7 8 9 10 11 12 13 14 15 16 17 18 19 20 21 22 23 24 25 26 27 28 29 30 31 32 33 34 35 36 37 38 39 40 41 42 43 44 45 46 47 48 49 50

000
ASUS43 KLOT 031900
RWRIL

ILLINOIS REGIONAL WEATHER ROUNDUP
NATIONAL WEATHER SERVICE CHICAGO/ROMEOVILLE IL
200 PM CDT THU SEP 03 2015

NOTE: "FAIR" INDICATES FEW OR NO CLOUDS BELOW 12,000 FEET WITH NO
SIGNIFICANT WEATHER AND/OR OBSTRUCTIONS TO VISIBILITY.

* THESE STATIONS ARE NOT UNDER NWS QUALITY CONTROL. THEY ALSO MAY NOT
  REPORT WEATHER SUCH AS PRECIPITATION OR FOG.

ILZ001-002-007-009-015-016-024-032000-
NORTHWEST ILLINOIS

CITY           SKY/WX    TMP DP  RH WIND       PRES   REMARKS
MOLINE         MOSUNNY   90  70  51 W8        29.91F HX  95
STERLING*      MOSUNNY   93  73  52 W10       29.90F HX 102
$$

ILZ003-004-008-010-011-017-018-032000-
NORTH CENTRAL ILLINOIS

CITY           SKY/WX    TMP DP  RH WIND       PRES   REMARKS
ROCKFORD       MOSUNNY   88  73  61 W6        29.94F HX  95
FREEPORT*      MOSUNNY   85  73  66 SW5       29.95F HX  92
$$

ILZ005-006-012>014-019>023-032000-
NORTHEAST ILLINOIS

CITY           SKY/WX    TMP DP  RH WIND       PRES   REMARKS
CHICAGO-OHARE  MOSUNNY   89  68  49 SW12      29.91F HX  93
CHICAGO-MIDWAY PTSUNNY   91  67  44 SW15      29.91F HX  94
AURORA         MOSUNNY   88  71  57 W14       29.94F HX  94
LANSING*       MOSUNNY   89  68  50 W10G21    29.93F HX  92
WAUKEGAN       MOSUNNY   86  73  65 VRB3      29.91F HX  93
DUPAGE AIRPORT PTSUNNY   89  69  51 SW14      29.92F HX  93
WHEELING       PTSUNNY   90  70  51 W10       29.92F HX  95
NORTHERLY ISL    N/A     89  63  41 SW13        N/A  HX  90
$$

LMZ740>746-032000-
SOUTHERN LAKE MICHIGAN

STATION/POSITION SKY/WX   TEMP    WIND        PRES    VSBY  WAVE
                          AIR SEA DIR/SP/G                  HT/PER
                          (F)     (DEG/KT/KT) (MB)    (MI)  (FT/S)
SOUTHERN BUOY              74 72  220/  4/  6 1012.5F         1
WILMETTE HARBOR            80 61  100/  2/  4   N/A           0
HARRISON CRIB              85     240/ 14/ 17   N/A
BURNHAM HARBOR             89     220/  7/ 12   N/A
CALUMET HARBOR             88     230/  7/ 12   N/A
BURNS HARBOR               85     240/ 15/ 17 1013.9F
MICHIGAN CITY              81     210/  7/  7   N/A
MICHIGAN CITY 6N           79 74  240/  2/  4   N/A           1
ST. JOSEPH                 76 73  270/  6/  6   N/A           1/ 3
$$

ILZ025>027-034>036-040-047-049-050-058-095>099-032000-
WEST-CENTRAL ILLINOIS

CITY           SKY/WX    TMP DP  RH WIND       PRES   REMARKS
QUINCY         SUNNY     92  66  42 W12       29.94F HX  94
$$

ILZ028>032-037-038-041>044-048-051>054-059>061-032000-
CENTRAL ILLINOIS

CITY           SKY/WX    TMP DP  RH WIND       PRES   REMARKS
DECATUR        SUNNY     92  66  42 SW8       29.96F HX  94
PEORIA         SUNNY     93  67  42 W9        29.94F HX  96
SPRINGFIELD    MOSUNNY   92  68  45 SW8       29.95F HX  96
TAYLORVILLE    NOT AVBL
$$

ILZ033-039-045-046-055>057-062-063-032000-
EAST-CENTRAL ILLINOIS

CITY           SKY/WX    TMP DP  RH WIND       PRES   REMARKS
CHAMPAIGN      MOSUNNY   92  65  40 SW8       29.97F HX  94
MATTOON        SUNNY     90  63  40 SW8       29.97F HX  91
$$

ILZ079-100>102-032000-
SOUTHWEST ILLINOIS

CITY           SKY/WX    TMP DP  RH WIND       PRES   REMARKS
ALTON          MOSUNNY   90  66  45 SW6       29.97F HX  92
BELLEVILLE     MOSUNNY   92  69  47 SE1       29.96F HX  96
CAHOKIA*       MOSUNNY   93  66  40 VRB6      29.96F HX  96
SPARTA*        MOSUNNY   89  70  54 W5        29.99F HX  94
$$

ILZ064>066-069>071-074>076-080>082-084>086-088>090-092>094-032000-
SOUTH-CENTRAL ILLINOIS

CITY           SKY/WX    TMP DP  RH WIND       PRES   REMARKS
CARBONDALE     SUNNY     89  67  47 W5        29.98F HX  92
MARION         MOSUNNY   91  68  46 S8        29.99F HX  95
MT. VERNON     MOSUNNY   91  70  49 SW8       29.99F HX  97
SALEM*         PTSUNNY   91  67  44 SW8       29.98F HX  94
$$

ILZ067-068-072-073-078-083-087-091-032000-
SOUTHEAST ILLINOIS

CITY           SKY/WX    TMP DP  RH WIND       PRES   REMARKS
LAWRENCEVILLE  SUNNY     92  66  42 VRB5      29.98F HX  94
FLORA*         MOSUNNY   90  66  43 W7        29.98F HX  92
ROBINSON*      SUNNY     90  68  47 W8        29.99F HX  94
$$

ABBREVIATIONS USED IN REMARKS
   TC - TEMPERATURE IN CELSIUS
  WCI - WIND CHILL INDEX
   HX - HEAT INDEX
  VSB - VISIBILITY
$$




USA.gov is the U.S. government's official web portal to all federal, state and local government web resources and services.